Location: Heppenheim
(49.6410°N, 8.6370°E)
Time: 16:09:50
(UTC+02:00)

ISS - Pass Details

Date: 09 May 2026
Orbit: 414 x 424 km, 51.6° (Epoch: 21 May)

Event Time Altitude Azimuth Distance (km) Brightness Sun altitude
Rises 23:16:12 0° 250° (WSW) 2,345 0.2 -17.3°
Reaches altitude 10° 23:18:17 10° 250° (WSW) 1,485 -0.8 -17.5°
Maximum altitude 23:21:37 87° 164° (SSE) 421 -3.9 -17.7°
Enters shadow 23:24:19 15° 73° (ENE) 1,227 -1.5 -18.0°
